owner,sensor,date,latitude,longitude,vertical_datum,wind_speed,wind_to_direction,wind_speed_of_gust,qcFlag 
DISL,ioos:station:DISL:MBLA:1,2016-07-01T00:00:00Z,30.4367,-88.0117,14.2,4.07,204.8,-9999.0,'1111122,1111122,1111122' 
DISL,ioos:station:DISL:MBLA:1,2016-07-01T00:30:00Z,30.4367,-88.0117,14.2,3.26,187.7,-9999.0,'1111122,1111122,1111122' 
DISL,ioos:station:DISL:MBLA:1,2016-07-01T01:00:00Z,30.4367,-88.0117,14.2,2.9,193.6,-9999.0,'1111122,1111122,1111122' 
DISL,ioos:station:DISL:MBLA:1,2016-07-01T01:30:00Z,30.4367,-88.0117,14.2,3.72,216.4,-9999.0,'1111122,1111122,1111122' 
DISL,ioos:station:DISL:MBLA:1,2016-07-01T02:00:00Z,30.4367,-88.0117,14.2,3.7,214.1,-9999.0,'1111122,1111122,1111122' 
DISL,ioos:station:DISL:MBLA:1,2016-07-01T02:30:00Z,30.4367,-88.0117,14.2,3.84,200.5,-9999.0,'1111122,1111122,1111122' 
DISL,ioos:station:DISL:MBLA:1,2016-07-01T03:00:00Z,30.4367,-88.0117,14.2,2.46,186.1,-9999.0,'1111122,1111122,1111122' 
DISL,ioos:station:DISL:MBLA:1,2016-07-01T03:30:00Z,30.4367,-88.0117,14.2,2.06,157.7,-9999.0,'1111122,1111122,1111122' 
DISL,ioos:station:DISL:MBLA:1,2016-07-01T04:00:00Z,30.4367,-88.0117,14.2,2.18,153.4,-9999.0,'1111122,1111122,1111122' 
DISL,ioos:station:DISL:MBLA:1,2016-07-01T04:30:00Z,30.4367,-88.0117,14.2,2.57,169.0,-9999.0,'1111122,1111122,1111122' 
DISL,ioos:station:DISL:MBLA:1,2016-07-01T05:00:00Z,30.4367,-88.0117,14.2,3.99,169.0,-9999.0,'1111122,1111122,1111122' 
DISL,ioos:station:DISL:MBLA:1,2016-07-01T05:30:00Z,30.4367,-88.0117,14.2,4.43,175.4,-9999.0,'1111122,1111122,1111122' 
DISL,ioos:station:DISL:MBLA:1,2016-07-01T06:00:00Z,30.4367,-88.0117,14.2,4.37,176.5,-9999.0,'1111122,1111122,1111122' 
DISL,ioos:station:DISL:MBLA:1,2016-07-01T06:30:00Z,30.4367,-88.0117,14.2,4.53,189.9,-9999.0,'1111122,1111122,1111122' 
DISL,ioos:station:DISL:MBLA:1,2016-07-01T07:00:00Z,30.4367,-88.0117,14.2,5.69,204.4,-9999.0,'1111122,1111122,1111122' 
DISL,ioos:station:DISL:MBLA:1,2016-07-01T07:30:00Z,30.4367,-88.0117,14.2,3.31,155.8,-9999.0,'1111122,1111122,1111122' 
DISL,ioos:station:DISL:MBLA:1,2016-07-01T08:00:00Z,30.4367,-88.0117,14.2,3.84,201.4,-9999.0,'1111122,1111122,1111122' 
DISL,ioos:station:DISL:MBLA:1,2016-07-01T08:30:00Z,30.4367,-88.0117,14.2,3.59,210.6,-9999.0,'1111122,1111122,1111122' 
DISL,ioos:station:DISL:MBLA:1,2016-07-01T09:00:00Z,30.4367,-88.0117,14.2,5.41,236.8,-9999.0,'1111122,1111122,1111122' 
DISL,ioos:station:DISL:MBLA:1,2016-07-01T09:30:00Z,30.4367,-88.0117,14.2,5.37,242.7,-9999.0,'1111122,1111122,1111122' 
DISL,ioos:station:DISL:MBLA:1,2016-07-01T10:00:00Z,30.4367,-88.0117,14.2,4.14,263.3,-9999.0,'1111122,1111122,1111122' 
DISL,ioos:station:DISL:MBLA:1,2016-07-01T10:30:00Z,30.4367,-88.0117,14.2,3.45,261.4,-9999.0,'1111122,1111122,1111122' 
DISL,ioos:station:DISL:MBLA:1,2016-07-01T11:00:00Z,30.4367,-88.0117,14.2,3.43,267.3,-9999.0,'1111122,1111122,1111122' 
DISL,ioos:station:DISL:MBLA:1,2016-07-01T11:30:00Z,30.4367,-88.0117,14.2,2.22,286.7,-9999.0,'1111122,1111122,1111122' 
DISL,ioos:station:DISL:MBLA:1,2016-07-01T12:00:00Z,30.4367,-88.0117,14.2,2.33,327.1,-9999.0,'1111122,1111122,1111122' 
DISL,ioos:station:DISL:MBLA:1,2016-07-01T12:30:00Z,30.4367,-88.0117,14.2,1.51,359.8,-9999.0,'1111122,1111122,1111122' 
DISL,ioos:station:DISL:MBLA:1,2016-07-01T13:00:00Z,30.4367,-88.0117,14.2,0.82,36.71,-9999.0,'1111122,1111122,1111122' 
DISL,ioos:station:DISL:MBLA:1,2016-07-01T13:30:00Z,30.4367,-88.0117,14.2,2.03,42.12,-9999.0,'1111122,1111122,1111122' 
DISL,ioos:station:DISL:MBLA:1,2016-07-01T14:00:00Z,30.4367,-88.0117,14.2,2.26,353.5,-9999.0,'1111122,1111122,1111122' 
DISL,ioos:station:DISL:MBLA:1,2016-07-01T14:30:00Z,30.4367,-88.0117,14.2,1.78,14.26,-9999.0,'1111122,1111122,1111122' 
DISL,ioos:station:DISL:MBLA:1,2016-07-01T15:00:00Z,30.4367,-88.0117,14.2,3.15,23.95,-9999.0,'1111122,1111122,1111122' 
DISL,ioos:station:DISL:MBLA:1,2016-07-01T15:30:00Z,30.4367,-88.0117,14.2,3.83,25.14,-9999.0,'1111122,1111122,1111122' 
DISL,ioos:station:DISL:MBLA:1,2016-07-01T16:00:00Z,30.4367,-88.0117,14.2,3.92,27.29,-9999.0,'1111122,1111122,1111122' 
DISL,ioos:station:DISL:MBLA:1,2016-07-01T16:30:00Z,30.4367,-88.0117,14.2,4.43,19.88,-9999.0,'1111122,1111122,1111122' 
DISL,ioos:station:DISL:MBLA:1,2016-07-01T17:00:00Z,30.4367,-88.0117,14.2,4.08,22.89,-9999.0,'1111122,1111122,1111122' 
DISL,ioos:station:DISL:MBLA:1,2016-07-01T17:30:00Z,30.4367,-88.0117,14.2,3.96,28.47,-9999.0,'1111122,1111122,1111122' 
DISL,ioos:station:DISL:MBLA:1,2016-07-01T18:00:00Z,30.4367,-88.0117,14.2,3.64,33.58,-9999.0,'1111122,1111122,1111122' 
DISL,ioos:station:DISL:MBLA:1,2016-07-01T18:30:00Z,30.4367,-88.0117,14.2,3.88,13.1,-9999.0,'1111122,1111122,1111122' 
DISL,ioos:station:DISL:MBLA:1,2016-07-01T19:00:00Z,30.4367,-88.0117,14.2,4.79,13.65,-9999.0,'1111122,1111122,1111122' 
DISL,ioos:station:DISL:MBLA:1,2016-07-01T19:30:00Z,30.4367,-88.0117,14.2,4.66,9.98,-9999.0,'1111122,1111122,1111122' 
DISL,ioos:station:DISL:MBLA:1,2016-07-01T20:00:00Z,30.4367,-88.0117,14.2,5.21,9.69,-9999.0,'1111122,1111122,1111122' 
DISL,ioos:station:DISL:MBLA:1,2016-07-01T20:30:00Z,30.4367,-88.0117,14.2,4.4,5.187,-9999.0,'1111122,1111122,1111122' 
DISL,ioos:station:DISL:MBLA:1,2016-07-01T21:00:00Z,30.4367,-88.0117,14.2,4.42,12.23,-9999.0,'1111122,1111122,1111122' 
DISL,ioos:station:DISL:MBLA:1,2016-07-01T21:30:00Z,30.4367,-88.0117,14.2,5.45,13.85,-9999.0,'1111122,1111122,1111122' 
DISL,ioos:station:DISL:MBLA:1,2016-07-01T22:00:00Z,30.4367,-88.0117,14.2,5.01,23.91,-9999.0,'1111122,1111122,1111122' 
DISL,ioos:station:DISL:MBLA:1,2016-07-01T22:30:00Z,30.4367,-88.0117,14.2,5.88,20.19,-9999.0,'1111122,1111122,1111122' 
DISL,ioos:station:DISL:MBLA:1,2016-07-01T23:00:00Z,30.4367,-88.0117,14.2,4.08,18.7,-9999.0,'1111122,1111122,1111122' 
DISL,ioos:station:DISL:MBLA:1,2016-07-01T23:30:00Z,30.4367,-88.0117,14.2,3.12,30.22,-9999.0,'1111122,1111122,1111122' 
DISL,ioos:station:DISL:MBLA:1,2016-07-02T00:00:00Z,30.4367,-88.0117,14.2,3.88,269.5,-9999.0,'1111122,1111122,1111122' 
DISL,ioos:station:DISL:MBLA:1,2016-07-02T00:30:00Z,30.4367,-88.0117,14.2,5.72,229.7,-9999.0,'1111122,1111122,1111122' 
DISL,ioos:station:DISL:MBLA:1,2016-07-02T01:00:00Z,30.4367,-88.0117,14.2,6.18,239.0,-9999.0,'1111122,1111122,1111122' 
DISL,ioos:station:DISL:MBLA:1,2016-07-02T01:30:00Z,30.4367,-88.0117,14.2,5.21,245.2,-9999.0,'1111122,1111122,1111122' 
DISL,ioos:station:DISL:MBLA:1,2016-07-02T02:00:00Z,30.4367,-88.0117,14.2,4.45,258.4,-9999.0,'1111122,1111122,1111122' 
DISL,ioos:station:DISL:MBLA:1,2016-07-02T02:30:00Z,30.4367,-88.0117,14.2,4.17,242.9,-9999.0,'1111122,1111122,1111122' 
DISL,ioos:station:DISL:MBLA:1,2016-07-02T03:00:00Z,30.4367,-88.0117,14.2,4.03,244.9,-9999.0,'1111122,1111122,1111122' 
DISL,ioos:station:DISL:MBLA:1,2016-07-02T03:30:00Z,30.4367,-88.0117,14.2,4.12,237.8,-9999.0,'1111122,1111122,1111122' 
DISL,ioos:station:DISL:MBLA:1,2016-07-02T04:00:00Z,30.4367,-88.0117,14.2,4.55,234.6,-9999.0,'1111122,1111122,1111122' 
DISL,ioos:station:DISL:MBLA:1,2016-07-02T04:30:00Z,30.4367,-88.0117,14.2,4.86,240.0,-9999.0,'1111122,1111122,1111122' 
DISL,ioos:station:DISL:MBLA:1,2016-07-02T05:00:00Z,30.4367,-88.0117,14.2,4.41,235.5,-9999.0,'1111122,1111122,1111122' 
DISL,ioos:station:DISL:MBLA:1,2016-07-02T05:30:00Z,30.4367,-88.0117,14.2,3.5,250.0,-9999.0,'1111122,1111122,1111122' 
DISL,ioos:station:DISL:MBLA:1,2016-07-02T06:00:00Z,30.4367,-88.0117,14.2,3.19,232.5,-9999.0,'1111122,1111122,1111122' 
DISL,ioos:station:DISL:MBLA:1,2016-07-02T06:30:00Z,30.4367,-88.0117,14.2,3.39,244.1,-9999.0,'1111122,1111122,1111122' 
DISL,ioos:station:DISL:MBLA:1,2016-07-02T07:00:00Z,30.4367,-88.0117,14.2,3.7,242.5,-9999.0,'1111122,1111122,1111122' 
DISL,ioos:station:DISL:MBLA:1,2016-07-02T07:30:00Z,30.4367,-88.0117,14.2,3.63,242.2,-9999.0,'1111122,1111122,1111122' 
DISL,ioos:station:DISL:MBLA:1,2016-07-02T08:00:00Z,30.4367,-88.0117,14.2,4.14,248.9,-9999.0,'1111122,1111122,1111122' 
DISL,ioos:station:DISL:MBLA:1,2016-07-02T08:30:00Z,30.4367,-88.0117,14.2,4.33,256.1,-9999.0,'1111122,1111122,1111122' 
DISL,ioos:station:DISL:MBLA:1,2016-07-02T09:00:00Z,30.4367,-88.0117,14.2,4.54,268.7,-9999.0,'1111122,1111122,1111122' 
DISL,ioos:station:DISL:MBLA:1,2016-07-02T09:30:00Z,30.4367,-88.0117,14.2,4.94,274.3,-9999.0,'1111122,1111122,1111122' 
DISL,ioos:station:DISL:MBLA:1,2016-07-02T10:00:00Z,30.4367,-88.0117,14.2,5.0,279.3,-9999.0,'1111122,1111122,1111122' 
DISL,ioos:station:DISL:MBLA:1,2016-07-02T10:30:00Z,30.4367,-88.0117,14.2,5.57,275.5,-9999.0,'1111122,1111122,1111122' 
DISL,ioos:station:DISL:MBLA:1,2016-07-02T11:00:00Z,30.4367,-88.0117,14.2,6.55,281.8,-9999.0,'1111122,1111122,1111122' 
DISL,ioos:station:DISL:MBLA:1,2016-07-02T11:30:00Z,30.4367,-88.0117,14.2,6.52,286.8,-9999.0,'1111122,1111122,1111122' 
DISL,ioos:station:DISL:MBLA:1,2016-07-02T12:00:00Z,30.4367,-88.0117,14.2,7.08,292.0,-9999.0,'1111122,1111122,1111122' 
DISL,ioos:station:DISL:MBLA:1,2016-07-02T12:30:00Z,30.4367,-88.0117,14.2,7.6,295.0,-9999.0,'1111122,1111122,1111122' 
DISL,ioos:station:DISL:MBLA:1,2016-07-02T13:00:00Z,30.4367,-88.0117,14.2,5.97,296.9,-9999.0,'1111122,1111122,1111122' 
DISL,ioos:station:DISL:MBLA:1,2016-07-02T13:30:00Z,30.4367,-88.0117,14.2,5.61,292.4,-9999.0,'1111122,1111122,1111122' 
DISL,ioos:station:DISL:MBLA:1,2016-07-02T14:00:00Z,30.4367,-88.0117,14.2,4.77,293.8,-9999.0,'1111122,1111122,1111122' 
DISL,ioos:station:DISL:MBLA:1,2016-07-02T14:30:00Z,30.4367,-88.0117,14.2,2.92,302.7,-9999.0,'1111122,1111122,1111122' 
DISL,ioos:station:DISL:MBLA:1,2016-07-02T15:00:00Z,30.4367,-88.0117,14.2,2.21,339.6,-9999.0,'1111122,1111122,1111122' 
DISL,ioos:station:DISL:MBLA:1,2016-07-02T15:30:00Z,30.4367,-88.0117,14.2,1.45,353.8,-9999.0,'1111122,1111122,1111122' 
DISL,ioos:station:DISL:MBLA:1,2016-07-02T16:00:00Z,30.4367,-88.0117,14.2,1.52,63.9,-9999.0,'1111122,1111122,1111122' 
DISL,ioos:station:DISL:MBLA:1,2016-07-02T16:30:00Z,30.4367,-88.0117,14.2,1.85,122.7,-9999.0,'1111122,1111122,1111122' 
DISL,ioos:station:DISL:MBLA:1,2016-07-02T17:00:00Z,30.4367,-88.0117,14.2,2.52,155.9,-9999.0,'1111122,1111122,1111122' 
DISL,ioos:station:DISL:MBLA:1,2016-07-02T17:30:00Z,30.4367,-88.0117,14.2,3.44,156.9,-9999.0,'1111122,1111122,1111122' 
DISL,ioos:station:DISL:MBLA:1,2016-07-02T18:00:00Z,30.4367,-88.0117,14.2,3.77,168.6,-9999.0,'1111122,1111122,1111122' 
DISL,ioos:station:DISL:MBLA:1,2016-07-02T18:30:00Z,30.4367,-88.0117,14.2,4.28,180.1,-9999.0,'1111122,1111122,1111122' 
DISL,ioos:station:DISL:MBLA:1,2016-07-02T19:00:00Z,30.4367,-88.0117,14.2,4.31,185.8,-9999.0,'1111122,1111122,1111122' 
DISL,ioos:station:DISL:MBLA:1,2016-07-02T19:30:00Z,30.4367,-88.0117,14.2,5.48,194.2,-9999.0,'1111122,1111122,1111122' 
DISL,ioos:station:DISL:MBLA:1,2016-07-02T20:00:00Z,30.4367,-88.0117,14.2,6.34,199.5,-9999.0,'1111122,1111122,1111122' 
DISL,ioos:station:DISL:MBLA:1,2016-07-02T20:30:00Z,30.4367,-88.0117,14.2,6.48,197.4,-9999.0,'1111122,1111122,1111122' 
DISL,ioos:station:DISL:MBLA:1,2016-07-02T21:00:00Z,30.4367,-88.0117,14.2,6.84,210.3,-9999.0,'1111122,1111122,1111122' 
DISL,ioos:station:DISL:MBLA:1,2016-07-02T21:30:00Z,30.4367,-88.0117,14.2,7.5,214.1,-9999.0,'1111122,1111122,1111122' 
DISL,ioos:station:DISL:MBLA:1,2016-07-02T22:00:00Z,30.4367,-88.0117,14.2,7.91,215.9,-9999.0,'1111122,1111122,1111122' 
DISL,ioos:station:DISL:MBLA:1,2016-07-02T22:30:00Z,30.4367,-88.0117,14.2,8.43,215.5,-9999.0,'1111122,1111122,1111122' 
DISL,ioos:station:DISL:MBLA:1,2016-07-02T23:00:00Z,30.4367,-88.0117,14.2,7.48,220.0,-9999.0,'1111122,1111122,1111122' 
DISL,ioos:station:DISL:MBLA:1,2016-07-02T23:30:00Z,30.4367,-88.0117,14.2,7.72,219.3,-9999.0,'1111122,1111122,1111122' 
DISL,ioos:station:DISL:MBLA:1,2016-07-03T00:00:00Z,30.4367,-88.0117,14.2,7.36,230.9,-9999.0,'1111122,1111122,1111122' 
DISL,ioos:station:DISL:MBLA:1,2016-07-03T00:30:00Z,30.4367,-88.0117,14.2,6.92,230.3,-9999.0,'1111122,1111122,1111122' 
DISL,ioos:station:DISL:MBLA:1,2016-07-03T01:00:00Z,30.4367,-88.0117,14.2,6.62,227.3,-9999.0,'1111122,1111122,1111122' 
DISL,ioos:station:DISL:MBLA:1,2016-07-03T01:30:00Z,30.4367,-88.0117,14.2,6.62,224.1,-9999.0,'1111122,1111122,1111122' 
DISL,ioos:station:DISL:MBLA:1,2016-07-03T02:00:00Z,30.4367,-88.0117,14.2,6.3,224.0,-9999.0,'1111122,1111122,1111122' 
DISL,ioos:station:DISL:MBLA:1,2016-07-03T02:30:00Z,30.4367,-88.0117,14.2,6.14,223.1,-9999.0,'1111122,1111122,1111122' 
DISL,ioos:station:DISL:MBLA:1,2016-07-03T03:00:00Z,30.4367,-88.0117,14.2,6.83,211.7,-9999.0,'1111122,1111122,1111122' 
DISL,ioos:station:DISL:MBLA:1,2016-07-03T03:30:00Z,30.4367,-88.0117,14.2,7.22,212.3,-9999.0,'1111122,1111122,1111122' 
DISL,ioos:station:DISL:MBLA:1,2016-07-03T04:00:00Z,30.4367,-88.0117,14.2,7.46,216.8,-9999.0,'1111122,1111122,1111122' 
DISL,ioos:station:DISL:MBLA:1,2016-07-03T04:30:00Z,30.4367,-88.0117,14.2,6.67,226.6,-9999.0,'1111122,1111122,1111122' 
DISL,ioos:station:DISL:MBLA:1,2016-07-03T05:00:00Z,30.4367,-88.0117,14.2,6.55,226.3,-9999.0,'1111122,1111122,1111122' 
DISL,ioos:station:DISL:MBLA:1,2016-07-03T05:30:00Z,30.4367,-88.0117,14.2,6.63,220.5,-9999.0,'1111122,1111122,1111122' 
DISL,ioos:station:DISL:MBLA:1,2016-07-03T06:00:00Z,30.4367,-88.0117,14.2,6.71,223.3,-9999.0,'1111122,1111122,1111122' 
DISL,ioos:station:DISL:MBLA:1,2016-07-03T06:30:00Z,30.4367,-88.0117,14.2,6.19,224.5,-9999.0,'1111122,1111122,1111122' 
DISL,ioos:station:DISL:MBLA:1,2016-07-03T07:00:00Z,30.4367,-88.0117,14.2,6.49,230.0,-9999.0,'1111122,1111122,1111122' 
DISL,ioos:station:DISL:MBLA:1,2016-07-03T07:30:00Z,30.4367,-88.0117,14.2,6.0,230.0,-9999.0,'1111122,1111122,1111122' 
DISL,ioos:station:DISL:MBLA:1,2016-07-03T08:00:00Z,30.4367,-88.0117,14.2,5.76,226.9,-9999.0,'1111122,1111122,1111122' 
DISL,ioos:station:DISL:MBLA:1,2016-07-03T08:30:00Z,30.4367,-88.0117,14.2,5.71,224.5,-9999.0,'1111122,1111122,1111122' 
DISL,ioos:station:DISL:MBLA:1,2016-07-03T09:00:00Z,30.4367,-88.0117,14.2,4.37,241.4,-9999.0,'1111122,1111122,1111122' 
DISL,ioos:station:DISL:MBLA:1,2016-07-03T09:30:00Z,30.4367,-88.0117,14.2,3.51,232.9,-9999.0,'1111122,1111122,1111122' 
DISL,ioos:station:DISL:MBLA:1,2016-07-03T10:00:00Z,30.4367,-88.0117,14.2,2.87,245.9,-9999.0,'1111122,1111122,1111122' 
DISL,ioos:station:DISL:MBLA:1,2016-07-03T10:30:00Z,30.4367,-88.0117,14.2,2.67,256.4,-9999.0,'1111122,1111122,1111122' 
DISL,ioos:station:DISL:MBLA:1,2016-07-03T11:00:00Z,30.4367,-88.0117,14.2,4.8,298.6,-9999.0,'1111122,1111122,1111122' 
DISL,ioos:station:DISL:MBLA:1,2016-07-03T11:30:00Z,30.4367,-88.0117,14.2,4.48,299.5,-9999.0,'1111122,1111122,1111122' 
DISL,ioos:station:DISL:MBLA:1,2016-07-03T12:00:00Z,30.4367,-88.0117,14.2,5.16,303.4,-9999.0,'1111122,1111122,1111122' 
DISL,ioos:station:DISL:MBLA:1,2016-07-03T12:30:00Z,30.4367,-88.0117,14.2,3.98,293.7,-9999.0,'1111122,1111122,1111122' 
DISL,ioos:station:DISL:MBLA:1,2016-07-03T13:00:00Z,30.4367,-88.0117,14.2,2.91,299.7,-9999.0,'1111122,1111122,1111122' 
DISL,ioos:station:DISL:MBLA:1,2016-07-03T13:30:00Z,30.4367,-88.0117,14.2,2.24,312.1,-9999.0,'1111122,1111122,1111122' 
DISL,ioos:station:DISL:MBLA:1,2016-07-03T14:00:00Z,30.4367,-88.0117,14.2,1.21,312.4,-9999.0,'1111122,1111122,1111122' 
DISL,ioos:station:DISL:MBLA:1,2016-07-03T14:30:00Z,30.4367,-88.0117,14.2,0.11,2.527,-9999.0,'1111122,1111122,1111122' 
DISL,ioos:station:DISL:MBLA:1,2016-07-03T15:00:00Z,30.4367,-88.0117,14.2,1.16,156.9,-9999.0,'1111122,1111122,1111122' 
DISL,ioos:station:DISL:MBLA:1,2016-07-03T15:30:00Z,30.4367,-88.0117,14.2,2.18,157.3,-9999.0,'1111122,1111122,1111122' 
DISL,ioos:station:DISL:MBLA:1,2016-07-03T16:00:00Z,30.4367,-88.0117,14.2,3.7,163.7,-9999.0,'1111122,1111122,1111122' 
DISL,ioos:station:DISL:MBLA:1,2016-07-03T16:30:00Z,30.4367,-88.0117,14.2,4.57,175.2,-9999.0,'1111122,1111122,1111122' 
DISL,ioos:station:DISL:MBLA:1,2016-07-03T17:00:00Z,30.4367,-88.0117,14.2,5.2,173.5,-9999.0,'1111122,1111122,1111122' 
DISL,ioos:station:DISL:MBLA:1,2016-07-03T17:30:00Z,30.4367,-88.0117,14.2,5.6,170.7,-9999.0,'1111122,1111122,1111122' 
DISL,ioos:station:DISL:MBLA:1,2016-07-03T18:00:00Z,30.4367,-88.0117,14.2,5.06,182.3,-9999.0,'1111122,1111122,1111122' 
DISL,ioos:station:DISL:MBLA:1,2016-07-03T18:30:00Z,30.4367,-88.0117,14.2,5.01,170.9,-9999.0,'1111122,1111122,1111122' 
DISL,ioos:station:DISL:MBLA:1,2016-07-03T19:00:00Z,30.4367,-88.0117,14.2,4.89,174.6,-9999.0,'1111122,1111122,1111122' 
DISL,ioos:station:DISL:MBLA:1,2016-07-03T19:30:00Z,30.4367,-88.0117,14.2,5.23,166.2,-9999.0,'1111122,1111122,1111122' 
DISL,ioos:station:DISL:MBLA:1,2016-07-03T20:00:00Z,30.4367,-88.0117,14.2,5.54,170.7,-9999.0,'1111122,1111122,1111122' 
DISL,ioos:station:DISL:MBLA:1,2016-07-03T20:30:00Z,30.4367,-88.0117,14.2,6.41,187.0,-9999.0,'1111122,1111122,1111122' 
DISL,ioos:station:DISL:MBLA:1,2016-07-03T21:00:00Z,30.4367,-88.0117,14.2,6.94,201.4,-9999.0,'1111122,1111122,1111122' 
DISL,ioos:station:DISL:MBLA:1,2016-07-03T21:30:00Z,30.4367,-88.0117,14.2,7.43,200.0,-9999.0,'1111122,1111122,1111122' 
DISL,ioos:station:DISL:MBLA:1,2016-07-03T22:00:00Z,30.4367,-88.0117,14.2,6.8,195.1,-9999.0,'1111122,1111122,1111122' 
DISL,ioos:station:DISL:MBLA:1,2016-07-03T22:30:00Z,30.4367,-88.0117,14.2,7.67,209.3,-9999.0,'1111122,1111122,1111122' 
DISL,ioos:station:DISL:MBLA:1,2016-07-03T23:00:00Z,30.4367,-88.0117,14.2,7.83,203.1,-9999.0,'1111122,1111122,1111122' 
DISL,ioos:station:DISL:MBLA:1,2016-07-03T23:30:00Z,30.4367,-88.0117,14.2,6.19,213.5,-9999.0,'1111122,1111122,1111122' 
DISL,ioos:station:DISL:MBLA:1,2016-07-04T00:00:00Z,30.4367,-88.0117,14.2,6.63,213.8,-9999.0,'1111122,1111122,1111122' 
DISL,ioos:station:DISL:MBLA:1,2016-07-04T00:30:00Z,30.4367,-88.0117,14.2,5.93,208.8,-9999.0,'1111122,1111122,1111122' 
DISL,ioos:station:DISL:MBLA:1,2016-07-04T01:00:00Z,30.4367,-88.0117,14.2,7.22,202.3,-9999.0,'1111122,1111122,1111122' 
DISL,ioos:station:DISL:MBLA:1,2016-07-04T01:30:00Z,30.4367,-88.0117,14.2,7.19,207.8,-9999.0,'1111122,1111122,1111122' 
DISL,ioos:station:DISL:MBLA:1,2016-07-04T02:00:00Z,30.4367,-88.0117,14.2,7.18,211.6,-9999.0,'1111122,1111122,1111122' 
DISL,ioos:station:DISL:MBLA:1,2016-07-04T02:30:00Z,30.4367,-88.0117,14.2,6.67,220.9,-9999.0,'1111122,1111122,1111122' 
DISL,ioos:station:DISL:MBLA:1,2016-07-04T03:00:00Z,30.4367,-88.0117,14.2,7.51,213.5,-9999.0,'1111122,1111122,1111122' 
DISL,ioos:station:DISL:MBLA:1,2016-07-04T03:30:00Z,30.4367,-88.0117,14.2,8.46,200.4,-9999.0,'1111122,1111122,1111122' 
DISL,ioos:station:DISL:MBLA:1,2016-07-04T04:00:00Z,30.4367,-88.0117,14.2,8.89,203.4,-9999.0,'1111122,1111122,1111122' 
DISL,ioos:station:DISL:MBLA:1,2016-07-04T04:30:00Z,30.4367,-88.0117,14.2,8.5,200.7,-9999.0,'1111122,1111122,1111122' 
DISL,ioos:station:DISL:MBLA:1,2016-07-04T05:00:00Z,30.4367,-88.0117,14.2,9.5,202.0,-9999.0,'1111122,1111122,1111122' 
DISL,ioos:station:DISL:MBLA:1,2016-07-04T05:30:00Z,30.4367,-88.0117,14.2,9.47,209.5,-9999.0,'1111122,1111122,1111122' 
DISL,ioos:station:DISL:MBLA:1,2016-07-04T06:00:00Z,30.4367,-88.0117,14.2,9.55,209.9,-9999.0,'1111122,1111122,1111122' 
DISL,ioos:station:DISL:MBLA:1,2016-07-04T06:30:00Z,30.4367,-88.0117,14.2,10.21,214.9,-9999.0,'1111122,1111122,1111122' 
DISL,ioos:station:DISL:MBLA:1,2016-07-04T07:00:00Z,30.4367,-88.0117,14.2,9.51,214.1,-9999.0,'1111122,1111122,1111122' 
DISL,ioos:station:DISL:MBLA:1,2016-07-04T07:30:00Z,30.4367,-88.0117,14.2,9.76,222.4,-9999.0,'1111122,1111122,1111122' 
DISL,ioos:station:DISL:MBLA:1,2016-07-04T08:00:00Z,30.4367,-88.0117,14.2,8.88,225.5,-9999.0,'1111122,1111122,1111122' 
DISL,ioos:station:DISL:MBLA:1,2016-07-04T08:30:00Z,30.4367,-88.0117,14.2,8.39,225.4,-9999.0,'1111122,1111122,1111122' 
DISL,ioos:station:DISL:MBLA:1,2016-07-04T09:00:00Z,30.4367,-88.0117,14.2,8.93,227.3,-9999.0,'1111122,1111122,1111122' 
DISL,ioos:station:DISL:MBLA:1,2016-07-04T09:30:00Z,30.4367,-88.0117,14.2,8.65,232.6,-9999.0,'1111122,1111122,1111122' 
DISL,ioos:station:DISL:MBLA:1,2016-07-04T10:00:00Z,30.4367,-88.0117,14.2,7.85,236.1,-9999.0,'1111122,1111122,1111122' 
DISL,ioos:station:DISL:MBLA:1,2016-07-04T10:30:00Z,30.4367,-88.0117,14.2,7.46,234.8,-9999.0,'1111122,1111122,1111122' 
DISL,ioos:station:DISL:MBLA:1,2016-07-04T11:00:00Z,30.4367,-88.0117,14.2,7.58,227.7,-9999.0,'1111122,1111122,1111122' 
DISL,ioos:station:DISL:MBLA:1,2016-07-04T11:30:00Z,30.4367,-88.0117,14.2,7.03,229.9,-9999.0,'1111122,1111122,1111122' 
DISL,ioos:station:DISL:MBLA:1,2016-07-04T12:00:00Z,30.4367,-88.0117,14.2,6.38,236.2,-9999.0,'1111122,1111122,1111122' 
DISL,ioos:station:DISL:MBLA:1,2016-07-04T12:30:00Z,30.4367,-88.0117,14.2,7.79,227.6,-9999.0,'1111122,1111122,1111122' 
DISL,ioos:station:DISL:MBLA:1,2016-07-04T13:00:00Z,30.4367,-88.0117,14.2,7.55,226.2,-9999.0,'1111122,1111122,1111122' 
DISL,ioos:station:DISL:MBLA:1,2016-07-04T13:30:00Z,30.4367,-88.0117,14.2,8.45,218.4,-9999.0,'1111122,1111122,1111122' 
DISL,ioos:station:DISL:MBLA:1,2016-07-04T14:00:00Z,30.4367,-88.0117,14.2,8.28,215.5,-9999.0,'1111122,1111122,1111122' 
DISL,ioos:station:DISL:MBLA:1,2016-07-04T14:30:00Z,30.4367,-88.0117,14.2,7.65,210.1,-9999.0,'1111122,1111122,1111122' 
DISL,ioos:station:DISL:MBLA:1,2016-07-04T15:00:00Z,30.4367,-88.0117,14.2,8.55,214.6,-9999.0,'1111122,1111122,1111122' 
DISL,ioos:station:DISL:MBLA:1,2016-07-04T15:30:00Z,30.4367,-88.0117,14.2,8.44,210.0,-9999.0,'1111122,1111122,1111122' 
DISL,ioos:station:DISL:MBLA:1,2016-07-04T16:00:00Z,30.4367,-88.0117,14.2,8.3,209.9,-9999.0,'1111122,1111122,1111122' 
DISL,ioos:station:DISL:MBLA:1,2016-07-04T16:30:00Z,30.4367,-88.0117,14.2,8.41,206.9,-9999.0,'1111122,1111122,1111122' 
DISL,ioos:station:DISL:MBLA:1,2016-07-04T17:00:00Z,30.4367,-88.0117,14.2,8.34,209.8,-9999.0,'1111122,1111122,1111122' 
DISL,ioos:station:DISL:MBLA:1,2016-07-04T17:30:00Z,30.4367,-88.0117,14.2,8.54,204.3,-9999.0,'1111122,1111122,1111122' 
DISL,ioos:station:DISL:MBLA:1,2016-07-04T18:00:00Z,30.4367,-88.0117,14.2,8.13,209.8,-9999.0,'1111122,1111122,1111122' 
DISL,ioos:station:DISL:MBLA:1,2016-07-04T18:30:00Z,30.4367,-88.0117,14.2,9.0,206.7,-9999.0,'1111122,1111122,1111122' 
DISL,ioos:station:DISL:MBLA:1,2016-07-04T19:00:00Z,30.4367,-88.0117,14.2,9.01,209.2,-9999.0,'1111122,1111122,1111122' 
DISL,ioos:station:DISL:MBLA:1,2016-07-04T19:30:00Z,30.4367,-88.0117,14.2,8.91,211.1,-9999.0,'1111122,1111122,1111122' 
DISL,ioos:station:DISL:MBLA:1,2016-07-04T20:00:00Z,30.4367,-88.0117,14.2,8.82,202.9,-9999.0,'1111122,1111122,1111122' 
DISL,ioos:station:DISL:MBLA:1,2016-07-04T20:30:00Z,30.4367,-88.0117,14.2,8.04,203.4,-9999.0,'1111122,1111122,1111122' 
DISL,ioos:station:DISL:MBLA:1,2016-07-04T21:00:00Z,30.4367,-88.0117,14.2,8.61,204.6,-9999.0,'1111122,1111122,1111122' 
DISL,ioos:station:DISL:MBLA:1,2016-07-04T21:30:00Z,30.4367,-88.0117,14.2,8.58,209.3,-9999.0,'1111122,1111122,1111122' 
DISL,ioos:station:DISL:MBLA:1,2016-07-04T22:00:00Z,30.4367,-88.0117,14.2,9.3,206.5,-9999.0,'1111122,1111122,1111122' 
DISL,ioos:station:DISL:MBLA:1,2016-07-04T22:30:00Z,30.4367,-88.0117,14.2,9.67,210.8,-9999.0,'1111122,1111122,1111122' 
DISL,ioos:station:DISL:MBLA:1,2016-07-04T23:00:00Z,30.4367,-88.0117,14.2,9.12,212.5,-9999.0,'1111122,1111122,1111122' 
DISL,ioos:station:DISL:MBLA:1,2016-07-04T23:30:00Z,30.4367,-88.0117,14.2,9.24,210.4,-9999.0,'1111122,1111122,1111122' 
DISL,ioos:station:DISL:MBLA:1,2016-07-05T00:00:00Z,30.4367,-88.0117,14.2,8.79,205.5,-9999.0,'1111122,1111122,1111122' 
DISL,ioos:station:DISL:MBLA:1,2016-07-05T00:30:00Z,30.4367,-88.0117,14.2,7.86,193.8,-9999.0,'1111122,1111122,1111122' 
DISL,ioos:station:DISL:MBLA:1,2016-07-05T01:00:00Z,30.4367,-88.0117,14.2,9.01,189.2,-9999.0,'1111122,1111122,1111122' 
DISL,ioos:station:DISL:MBLA:1,2016-07-05T01:30:00Z,30.4367,-88.0117,14.2,9.73,190.8,-9999.0,'1111122,1111122,1111122' 
DISL,ioos:station:DISL:MBLA:1,2016-07-05T02:00:00Z,30.4367,-88.0117,14.2,9.38,208.2,-9999.0,'1111122,1111122,1111122' 
DISL,ioos:station:DISL:MBLA:1,2016-07-05T02:30:00Z,30.4367,-88.0117,14.2,10.08,209.4,-9999.0,'1111122,1111122,1111122' 
DISL,ioos:station:DISL:MBLA:1,2016-07-05T03:00:00Z,30.4367,-88.0117,14.2,9.8,217.8,-9999.0,'1111122,1111122,1111122' 
DISL,ioos:station:DISL:MBLA:1,2016-07-05T03:30:00Z,30.4367,-88.0117,14.2,9.48,219.0,-9999.0,'1111122,1111122,1111122' 